Weather History for Shreveport Downtown, LA

Change the Weather History Date:

Sunday, November 13, 2011

  Actual Average (KSHV) Record (KSHV)
Temperature  
Mean Temperature 72 °F 57 °F  
Max Temperature 81 °F 69 °F 87 °F (1955)
Min Temperature 63 °F 46 °F 24 °F (1907)
Degree Days  
Heating Degree Days 0 9  
Month to date heating degree days 91  
Since 1 July heating degree days 177  
Cooling Degree Days 7 1  
Month to date cooling degree days 17  
Year to date cooling degree days 2466  
Growing Degree Days 22 (Base 50)    
Moisture  
Dew Point 62 °F    
Average Humidity 73    
Maximum Humidity 90    
Minimum Humidity 50    
Precipitation  
Precipitation 0.00 in 0.15 in 1.47 in (1957)
Month to date precipitation 2.02  
Year to date precipitation 44.13  
Snow  
Snow 0.00 in - - ()
Month to date snowfall  
Since 1 July snowfall  
Since 1 September snowfall  
Snow Depth -    
Sea Level Pressure  
Sea Level Pressure 29.89 in    
Wind  
Wind Speed 14 mph (SSW)    
Max Wind Speed 21 mph    
Max Gust Speed 34 mph    
Visibility 10 miles    
Events      
T = Trace of Precipitation, MM = Missing Value Source: NWS Daily Summary

Daily Weather History Graph

Daily Weather History Graph

Search for Another Location

Airport:

Trip Planner

Search our weather history database for the weather conditions in past years. The results will help you decide how hot, cold, wet, or windy it might be!

Date:

Astronomy

Nov. 13, 2011 Rise Set
Actual Time 6:42 AM CST 5:15 PM CST
Civil Twilight 6:16 AM CST 5:41 PM CST
Nautical Twilight 5:47 AM CST 6:10 PM CST
Astronomical Twilight 5:17 AM CST 6:40 PM CST
Moon 7:30 PM CST (11/13) 9:10 AM CST (11/13)
Length of Visible Light 11h 24m
Length of Day
10h 32m
Waning Gibbous, 92% of the Moon is Illuminated
Nov 13
Waning Gibbous
Nov 18
Last Quarter
Nov 25
New
Dec 2
First Quarter
Dec 10
Full

Hourly Weather History & Observations

Time (CST) Temp. Heat Index Dew Point Humidity Pressure Visibility Wind Dir Wind Speed Gust Speed Precip Events Conditions
12:53 AM 66.0 °F - 57.0 °F 73% 29.94 in 10.0 mi South 11.5 mph 21.9 mph N/A   Overcast
1:53 AM 64.9 °F - 57.9 °F 78% 29.93 in 10.0 mi South 13.8 mph 20.7 mph N/A   Mostly Cloudy
2:53 AM 64.0 °F - 57.9 °F 80% 29.91 in 10.0 mi South 13.8 mph - N/A   Partly Cloudy
3:53 AM 63.0 °F - 59.0 °F 87% 29.92 in 10.0 mi South 9.2 mph - N/A   Mostly Cloudy
4:53 AM 63.0 °F - 59.0 °F 87% 29.91 in 10.0 mi South 11.5 mph - N/A   Scattered Clouds
5:53 AM 63.0 °F - 60.1 °F 90% 29.92 in 10.0 mi South 9.2 mph - N/A   Partly Cloudy
6:53 AM 64.9 °F - 60.1 °F 84% 29.93 in 10.0 mi South 11.5 mph - N/A   Mostly Cloudy
7:53 AM 66.0 °F - 61.0 °F 84% 29.94 in 10.0 mi South 10.4 mph - N/A   Overcast
8:53 AM 69.1 °F - 62.1 °F 78% 29.93 in 10.0 mi SSW 12.7 mph 18.4 mph N/A   Overcast
9:53 AM 71.1 °F - 63.0 °F 75% 29.93 in 10.0 mi South 16.1 mph 23.0 mph N/A   Overcast
10:53 AM 73.9 °F - 64.0 °F 71% 29.92 in 10.0 mi SW 20.7 mph 28.8 mph N/A   Overcast
11:09 AM 73.4 °F - 64.4 °F 73% 29.92 in 10.0 mi SW 20.7 mph 32.2 mph N/A   Overcast
11:18 AM 73.4 °F - 64.4 °F 73% 29.92 in 10.0 mi SW 17.3 mph 26.5 mph N/A   Overcast
11:25 AM 75.2 °F - 64.4 °F 69% 29.92 in 10.0 mi SW 16.1 mph 25.3 mph N/A   Overcast
11:36 AM 75.2 °F - 64.4 °F 69% 29.91 in 10.0 mi SW 16.1 mph 25.3 mph N/A   Overcast
11:53 AM 75.0 °F - 63.0 °F 66% 29.90 in 10.0 mi SSW 19.6 mph 34.5 mph N/A   Overcast
12:53 PM 78.1 °F - 63.0 °F 60% 29.85 in 10.0 mi SSW 17.3 mph 32.2 mph N/A   Mostly Cloudy
1:53 PM 80.1 °F 81.5 °F 63.0 °F 56% 29.83 in 10.0 mi SSW 18.4 mph 28.8 mph N/A   Partly Cloudy
2:53 PM 81.0 °F 81.9 °F 62.1 °F 52% 29.81 in 10.0 mi South 18.4 mph 26.5 mph N/A   Mostly Cloudy
3:53 PM 81.0 °F 81.7 °F 61.0 °F 50% 29.81 in 10.0 mi South 18.4 mph 25.3 mph N/A   Scattered Clouds
4:53 PM 79.0 °F - 62.1 °F 56% 29.82 in 10.0 mi SSW 13.8 mph - N/A   Clear
5:53 PM 75.9 °F - 63.0 °F 64% 29.84 in 10.0 mi South 10.4 mph - N/A   Mostly Cloudy
6:53 PM 73.9 °F - 64.0 °F 71% 29.85 in 10.0 mi South 12.7 mph - N/A   Clear
7:53 PM 73.0 °F - 64.9 °F 76% 29.86 in 10.0 mi South 11.5 mph - N/A   Clear
8:53 PM 72.0 °F - 64.9 °F 78% 29.87 in 10.0 mi South 12.7 mph - N/A   Mostly Cloudy
9:53 PM 73.0 °F - 66.0 °F 79% 29.88 in 10.0 mi South 11.5 mph 20.7 mph N/A   Overcast
10:53 PM 73.0 °F - 66.0 °F 79% 29.88 in 10.0 mi South 11.5 mph 18.4 mph N/A   Overcast
11:53 PM 73.0 °F - 66.0 °F 79% 29.89 in 10.0 mi South 10.4 mph - N/A   Overcast